Regional Weather Roundup
Issued by NWS

Home | Current Version | Previous Version | Graphics & Text | Print | Product List | Glossary On
Versions: 1 2 3 4 5 6 7 8 9 10 11 12 13 14 15 16 17 18 19 20 21 22 23 24 25 26 27 28 29 30 31 32 33 34 35 36 37 38 39 40 41 42 43 44 45 46 47 48 49 50
000
ASUS44 KMEG 281710
RWRTN
TENNESSEE HOURLY STATE WEATHER ROUNDUP
NATIONAL WEATHER SERVICE MEMPHIS TN
1200 PM CDT THU MAY 28 2015

TNZ002-004-019-021-049-052-054-088>092-281800-
WEST TENNESSEE

CITY           SKY/WX    TMP DP  RH WIND       PRES   REMARKS
MEMPHIS INTL   CLOUDY    77  66  68 VRB3      30.17R
NWS MEMPHIS      N/A     78 N/A N/A MISG        N/A
JACKSON        CLOUDY    74  66  76 S8        30.17S
DYERSBURG      CLOUDY    72  55  56 SE3       30.19R
PARIS          PTSUNNY   75  64  69 SE9       30.17F
LEXINGTON      CLOUDY    72  66  83 SE7       30.17F
$$

TNZ008-025-027-028-033-062-065-066-281800-
NORTH MIDDLE TENNESSEE

CITY           SKY/WX    TMP DP  RH WIND       PRES   REMARKS
NASHVILLE      PTSUNNY   77  66  68 SE7       30.21F
CLARKSVILLE    PTSUNNY   78  65  63 VRB7      30.18F
SMYRNA         PTSUNNY   80  66  62 SE7       30.21F
COOKEVILLE     PTSUNNY   77  68  73 SE5       30.22F
CROSSVILLE     CLOUDY    70  63  78 SE3       30.28F
$$

TNZ061-075-076-078-094-096-097-281800-
SOUTH MIDDLE TENNESSEE

CITY           SKY/WX    TMP DP  RH WIND       PRES   REMARKS
FAYETTEVILLE     N/A    N/A N/A N/A MISG      30.21F
TULLAHOMA      MOSUNNY   73  63  68 CALM      30.23F
WINCHESTER     PTSUNNY   75  66  73 E8        30.22F
MCMINNVILLE    SUNNY     79  66  65 VRB6      30.22F
COLUMBIA       SUNNY     79  70  73 SE5       30.18F
SHELBYVILLE    MOSUNNY   81  66  61 VRB3      30.22S
$$

TNZ017-018-042-046-047-281800-
NORTHEAST TENNESSEE

CITY           SKY/WX    TMP DP  RH WIND       PRES   REMARKS
TRI CITIES     PTSUNNY   81  61  50 VRB5      30.25F
ELIZABETHTON   SUNNY     81  61  50 CALM      30.25F
$$

TNZ012-013-036-069-073-074-281800-
CENTRAL EAST TENNESSEE

CITY           SKY/WX    TMP DP  RH WIND       PRES   REMARKS
KNOXVILLE      LGT RAIN  79  61  53 NW7       30.22S
OAK RIDGE      CLOUDY    78  66  66 CALM      30.25S
GATLINBURG       N/A     81  63  54 CALM      30.22S
MORRISTOWN       N/A     81  64  57 S5        30.24F
$$

TNZ083-085-099-281800-
SOUTHEAST TENNESSEE

CITY           SKY/WX    TMP DP  RH WIND       PRES   REMARKS
CHATTANOOGA    CLOUDY    76  64  66 CALM      30.23F
$$

SKY/WX REPORTED AS FAIR MEANS FEW OR NO CLOUDS BELOW
12 THOUSAND FEET.



USA.gov is the U.S. government's official web portal to all federal, state and local government web resources and services.